www.pogodaiklimat.ru

Погода и климат >> Архив погоды >> Аргентина >> Villa Reynolds


ПОГОДА в Villa Reynolds

  • Прогноз погоды в Villa Reynolds
  • Монитор погоды в Villa Reynolds
  • Климат города

АРХИВ ПОГОДЫ в Villa Reynolds

Время (UTC), дата Ветер
(напр.,м/с)
 
Видим.   Явления Облачность Т
(С)
Тd
(С)
f
(%)
Тe
(С)
Тes
(С)
Комфортность P
(гПа)
Po
(гПа)
Тmin
(С)
Tmax
(С)
R
(мм)
S
(см)
03 21.03 СВ 4 15 км 8/5 600 м
[Sc Ac As]
+17.8 +13.3 75 +18 +18 1020.1 964.2
06 21.03 штиль 0 15 км 8/5 600 м
[Sc Ac As]
+17.0 +12.8 76 +17 +17 1019.1 962.5
09 21.03 СЗ 3 15 км 10/6 600 м
[Sc As op]
+15.0 +13.0 88 +14 +14 1018.2 962.2
12 21.03 штиль 0 15 км 10/6 600 м
[Sc As op]
+15.8 +13.7 87 +16 +16 1020.2 963.8 +14.0 +18.6
15 21.03 штиль 0 8000 м слабый дождь 10/5 600 м
[Sc As op]
+20.0 +15.1 73 +22 +24 комфорт 1020.4 964.4
18 21.03 ЮЗ 3 2000 м дождь 10/5 600 м
[Sc As op]
+18.0 +16.4 90 +18 +19 1019.7 963.4 4
21 21.03 ЮЗ 3 10 км {дождь} 10/5 600 м
[Sc As op]
+18.0 +16.4 90 +18 +19 1018.6 962.2
00 22.03 штиль 0 12 км {дождь} 8/4 600 м
[Sc Ac As]
+16.6 +15.6 94 +16 +16 1019.2 962.6 +15.2 +21.1 1
03 22.03 В 1 10 км 3/0
[Ac As]
+15.6 +14.6 94 +16 +16 1019.2 963.0
06 22.03 штиль 0 10 км 3/0
[Ac As]
+13.5 +13.0 97 +13 +13 1018.8 962.2
09 22.03 СЗ 3 3000 м в посл. час туман туман ясно +11.6 +11.2 97 +10 +10 1018.8 962.1
12 22.03 штиль 0 10 км {туман} 3/1 600 м
[Sc Ac As]
+14.5 +13.8 96 +14 +17 1020.0 963.4 +10.4 +16.6 5
15 22.03 В 3 10 км 4/3 1200 м
[Cu med, cong Ac As]
+24.2 +17.0 64 +28 +35 душно 1019.4 963.6
18 22.03 В 4 10 км 8/6 1050 м
[Cu med, cong Ac As]
+26.4 +17.1 57 +30 +32 душно 1016.8 961.2
21 22.03 В 4 10 км 4/3 1050 м
[Cu med, cong Ac As]
+27.0 +15.9 51 +30 +31 душно 1015.9 960.2
00 23.03 В 3 10 км ясно +18.2 +16.6 90 +19 +19 1017.5 961.2 +14.5 +27.1
03 23.03 штиль 0 15 км ясно +15.6 +14.9 96 +15 +15 1017.3 961.6
09 23.03 штиль 0 10 км ясно +12.4 +11.9 97 +12 +12 1015.3 959.7
12 23.03 штиль 0 10 км 1/0
[Ac As]
+16.0 +14.3 90 +16 +19 1016.4 960.2 +10.0 +18.3
15 23.03 В 1 15 км 1/1 900 м
[Cu hum]
+25.9 +18.1 62 +30 +44 душно 1015.7 960.2
18 23.03 В 3 15 км 4/4 900 м
[Cu hum]
+30.1 +15.1 40 +32 +39 жарко 1012.7 957.6
21 23.03 В 3 15 км 1/1 900 м
[Cu hum]
+29.7 +14.1 39 +32 +33 душно 1011.5 956.2
00 24.03 штиль 0 15 км ясно +21.2 +17.8 81 +25 +25 комфорт 1013.1 957.4 +15.8 +30.6
03 24.03 штиль 0 10 км ясно +17.7 +16.4 92 +18 +18 1012.9 957.8
06 24.03 штиль 0 8000 м дымка ясно +13.1 +12.9 99 +13 +13 1012.1 957.0
09 24.03 штиль 0 8000 м дымка ясно +13.0 +12.8 99 +12 +12 1011.6 956.5
12 24.03 штиль 0 10 км ясно +14.2 +11.1 82 +14 +17 1013.6 957.7 +12.8 +21.3
15 24.03 В 3 15 км ясно +29.0 +9.7 30 +34 +46 очень
душно
1011.9 957.2
18 24.03 В 3 15 км 1/1 1050 м
[Cu hum]
+32.2 +9.7 25 +32 +41 жарко 1010.0 955.2
21 24.03 В 4 15 км 3/1 1050 м
[Cu hum Ci sp]
+30.5 +11.9 32 +31 +32 жарко 1008.9 954.1
00 25.03 штиль 0 10 км 5/1 1200 м
[Cb cap Cs]
+20.8 +15.4 71 +24 +24 комфорт 1010.6 954.9 +14.2 +32.6
03 25.03 штиль 0 10 км ясно +18.0 +16.4 90 +18 +18 1009.8 955.2
06 25.03 штиль 0 10 км ясно +15.8 +14.4 91 +16 +16 1008.4 954.0
09 25.03 штиль 0 10 км 3/0
[Ci sp]
+15.2 +14.7 97 +15 +15 1009.3 954.6
12 25.03 штиль 0 10 км 4/0
[Ac As Ci sp]
+20.0 +16.8 82 +22 +25 комфорт 1011.2 956.0 +14.8 +20.9
15 25.03 С 3 15 км 5/3 900 м
[Cu hum Ac As Ci sp]
+30.7 +17.4 45 +35 +41 очень
душно
1009.9 955.4
18 25.03 СВ 9 15 км 9/6 900 м
[Cb cap Ac As Ci ing]
+29.1 +16.7 47 +33 +33 очень
душно
1008.0 953.3
21 25.03 ЮВ 7 10 км гроза без осадков 9/5 900 м
[Cb cap As op Ci ing]
+28.1 +16.2 48 +31 +31 душно 1006.5 951.7
00 26.03 СВ 4 1500 м гроза, ливневой дождь 10/8 60 м
[Cb cap As op]
+16.3 +16.0 98 +16 +16 1011.3 955.6 +16.1 +32.5 92
03 26.03 СВ 9 10 км зарница {гроза} 10/8 300 м
[Cb cap As op]
+15.8 +15.8 100 +14 +14 1010.2 955.4
06 26.03 ЮЗ 2 10 км зарница {гроза} 10/8 300 м
[Cb cap Ac As]
+15.8 +15.5 98 +16 +16 1008.3 958.6 1
09 26.03 ЮЗ 2 10 км 10/8 450 м
[St Ac As]
+14.4 +14.4 100 +14 +14 1009.2 954.2
12 26.03 В 2 100 м туман ?/? +14.8 +14.8 100 +14 +14 1012.6 956.4 +12.8 +16.4 93
15 26.03 СВ 1 10 км {туман} 5/5 300 м
[Sc]
+20.2 +17.7 86 +24 +32 комфорт 1012.1 956.4
18 26.03 С 3 10 км {туман} 3/1 600 м
[Cu hum Cs]
+26.8 +18.3 60 +32 +41 очень
душно
1009.9 954.9
21 26.03 СВ 4 10 км 9/0
[Cs]
+27.1 +18.8 60 +32 +33 очень
душно
1009.1 954.0
00 27.03 В 3 10 км 6/0
[Cs]
+20.9 +18.3 85 +26 +26 душно 1011.1 955.4 +14.4 +28.3
03 27.03 штиль 0 10 км 4/0
[Cs]
+18.5 +17.5 94 +19 +19 1013.0 957.4
06 27.03 штиль 0 10 км 5/0
[Cs]
+16.2 +15.7 97 +16 +16 1012.0 956.9
09 27.03 штиль 0 10 км 4/0
[Cs]
+14.8 +14.5 98 +14 +14 1012.3 957.0
12 27.03 штиль 0 10 км 4/0
[Cs]
+17.5 +16.5 94 +17 +20 1014.3 956.5 +13.7 +21.1
15 27.03 В 3 15 км 4/1 600 м
[Cu hum Cs]
+25.8 +18.8 65 +31 +40 очень
душно
1014.2 959.0
18 27.03 С 4 15 км 6/6 600 м
[Cu Sc]
+30.2 +20.5 56 +37 +40 очень
душно
1011.9 957.0
21 27.03 СВ 9 15 км 6/6 900 м
[Cu med, cong]
+29.6 +19.5 55 +36 +36 очень
душно
1010.7 955.8
00 28.03 СВ 4 15 км гроза без осадков 6/5 900 м
[Cb cap Ac As]
+23.8 +19.6 77 +29 +29 душно 1012.8 957.4 +17.5 +32.3

 

Местоположение метеостанции Villa Reynolds (Аргентина): широта -33.73 долгота -65.38 высота над уровнем моря 486 м.

В архиве по умолчанию представлена погода в Villa Reynolds за последнюю неделю. Архивные данные за месяц целиком и за предыдущие месяцы, начиная с января 2011 года, Вы можете получить, выбрав интересующий диапазон дат из раскрывающегося списка и нажав кнопку "Ввод!".

Внимание! Время в таблицах - всемирное. Для получения местного времени необходимо прибавить поправку, которая в Villa Reynolds равна -3 ч.

Смотрите также архив погоды в соседних городах и на ближайших метеорологических станциях:

Погода в San Luis (Аргентина) (104 км)
Погода в Rio Cuarto (Аргентина) (125 км)
Погода в Laboulaye (Аргентина) (192 км)
Погода в Villa Dolores (Аргентина) (199 км)
Погода в General Pico (Аргентина) (265 км)
Погода в Pilar (Аргентина) (270 км)
Погода в San Martin (Аргентина) (290 км)
Погода в Cordoba (Аргентина) (291 км)
Погода в San Rafael (Аргентина) (294 км)
Погода в Marcos Juarez (Аргентина) (322 км)

Пояснения к столбцам:

Ветер - указаны скорость ветра в м/с - средняя за 10 мин, порывы в срок и между сроками (в фигурных скобках) и направление, откуда дует ветер: С - северный, СВ - северо-восточный, В - восточный, ЮВ - юго-восточный, Ю - южный, ЮЗ - юго-западный, З - западный, СЗ - северо-западный.
Видимость - горизонтальная дальность видимости в метрах или километрах. При видимости от 1 до 10 км при отсутствии осадков обычно наблюдается дымка, при ухудшении видимости до 1 км и менее - туман. В сухую погоду видимость может ухудшаться дымом, пылью или мглою.
Явления - указаны атмосферные явления, наблюдавшиеся в срок или в последний час перед сроком; фигурными скобками обозначены явления, наблюдавшиеся между сроками (за 1-3 часа до срока); квадратными скобками обозначены град или гололедные отложения с указанием их диаметра в мм.
Облачность - указаны через наклонную черту общая и нижняя облачность в баллах и высота нижней границы облаков в метрах; квадратными скобками обозначены формы облаков: Ci - перистые, Cs - перисто-слоистые, Cc - перисто-кучевые, Ac - высококучевые, As - высокослоистые, Sc - слоисто-кучевые, Ns - слоисто-дождевые, Cu - кучевые, Cb - кучево-дождевые. Подробнее классификацию облаков см. в Атласе облаков (PDF).
T - Температура воздуха - температура, измеренная на высоте 2 м над землей.
Td - Температура точки росы - температура, при понижении до которой содержащийся в воздухе водяной пар достигнет насыщения.
f - Относительная влажность воздуха - влажноcть воздуха, измеренная на высоте 2 м над землей.
Te - Эффективная температура - температура, которую ощущает одетый по сезону человек в тени. Характеристика душности погоды. При расчете учитывается влияние влажности воздуха и скорости ветра на теплоощущения человека.
Tes - Эффективная температура на солнце - температура, которую ощущает человек, с поправкой на солнечный нагрев. Характеристика знойности погоды. Зависит от высоты солнца над горизонтом, облачности и скорости ветра. Ночью, в пасмурную погоду, а также при ветре 12 м/с и более поправка равна нулю.
P - Атмосферное давление - приведенное к уровню моря атмосферное давление.
Po - Атмосферное давление - измеренное на уровне метеостанции атмосферное давление.
Tmin - Минимальная температура - минимум температуры воздуха на высоте 2 м над землей.
Tmax - Максимальная температура - максимум температуры воздуха на высоте 2 м над землей.
R - Количество осадков - Количество выпавших осадков, мм. При наведении курсора мыши на число - период времени, за который выпало указанное количество осадков.
S - Снежный покров - Высота снежного покрова, см. При наведении курсора мыши на число - состояние снежного покрова и степень покрытия местности в баллах.